Current weather by "City, St" or "zip code"  
 
Advertise Here

Current Conditions: Joliet Regional Airport, IL

Fair


71.0 F

Last Updated on Jul 26 2021, 11:55 pm CDT
Humidity: 94%
Wind Speed: N 0.0 mph
Barometer 30.05 in
Dewpoint: 68.9 F
Visibility: 10.00 mi
Precip: --
Heat Index: NA
Wind Chill: NA
Current conditions at:

Joliet Regional Airport, IL (KJOT)

Lat: 41.51755 Lon: 88.17903

Local Radar Image active severe weather and emergency alerts image image weather storm and storm spotter reports image weather observation monitoring service image
Local
Radar
Active
Alerts
Storm Reports Obs
Monitoring

Sign-up For Email & Text Message Weather Alert Notification Services


Advertise Here

Observation History for Joliet Regional Airport, IL


Time Wind
(mph)
Vis
(mi)
Weather Precip (in) Temperature (F) Relative
Humidity
Wind
Chill
(F)
Heat
Index
(F)
Pressure
Air Dwpt altimeter
(in)
sea level
(mb)
Rmks
11:55 pm CDT N 0.0 10.00 Fair -- 71.0 68.9 94% NA NA 30.05 M
10:55 pm CDT N 0.0 10.00 Fair -- 72.0 68.7 90% NA NA 30.03 M
9:55 pm CDT N 0.0 10.00 Fair -- 75.0 69.4 84% NA NA 30.03 M
8:55 pm CDT N 0.0 10.00 Fair -- 76.0 69.8 82% NA NA 30.02 M
7:55 pm CDT N 0.0 10.00 Fair -- 80.0 69.1 69% NA 83 30.01 M
7:35 pm CDT N 0.0 10.00 Fair -- 86.0 65.8 52% NA 88 30.01 M
6:55 pm CDT W 3.5 10.00 Fair -- 87.0 66.7 51% NA 90 30.01 M
5:55 pm CDT W 5.8 10.00 Fair -- 89.0 64.4 45% NA 91 30.01 M
5:35 pm CDT W 5.8 10.00 Fair -- 89.0 64.9 45% NA 91 30.01 M
4:55 pm CDT W 4.6 10.00 Fair -- 90.0 63.5 41% NA 91 30.02 M
4:35 pm CDT W 4.6 10.00 Fair -- 90.0 63.9 42% NA 91 30.02 M
3:55 pm CDT NW 3.5 10.00 Fair -- 90.0 63.5 41% NA 91 30.02 M
2:55 pm CDT W 3.5 10.00 Fair -- 90.0 62.1 39% NA 90 30.04 M
1:55 pm CDT W 4.6 10.00 Fair -- 91.0 63.7 41% NA 93 30.04 M
1:35 pm CDT W 4.6 10.00 Fair -- 91.0 58.6 34% NA 90 30.04 M
12:55 pm CDT SW 3.5 10.00 Fair -- 89.0 59.9 37% NA 88 30.05 M
11:55 am CDT N 0.0 10.00 Fair -- 88.0 58.6 38% NA 87 30.06 M
11:35 am CDT N 0.0 10.00 Fair -- 87.0 58.5 38% NA 86 30.06 M
10:55 am CDT N 0.0 10.00 Fair -- 86.0 60.8 43% NA 86 30.05 M
7:35 am CDT N 4.6 10.00 Fair -- 72.0 64.9 78% NA NA 30.04 M
6:55 am CDT N 0.0 10.00 Fair -- 66.0 66.0 99% NA NA 30.02 M
5:55 am CDT N 0.0 0.25 Fog -- 63.0 62.6 99% NA NA 30.02 M
5:35 am CDT N 0.0 1.00 Fog/Mist -- 62.0 61.7 98% NA NA 30.02 M
4:55 am CDT N 0.0 1.00 Fog/Mist -- 64.0 63.5 99% NA NA 30.01 M

Regional Weather Observation


Aurora Municipal Airport, IL (KARR)

Fair
67.0 F

Schaumburg Regional Airport, IL (K06C)

Fair
74.0 F

Lewis University Airport, IL (KLOT)

Fair
72.0 F

De Kalb Taylor Municipal Airport, IL (KDKB)

Fair
72.0 F

Joliet Regional Airport, IL (KJOT)

Fair
71.0 F

Morris Muni-James R Washburn Field Airport, IL (KC09)

Fair
73.0 F
Advertise Here

Advertise Here